Location: ??
(35.5653°N, 139.6194°E)
Time: 20:45:27
(UTC+00:00)

ATLAS CENTAUR R/B - Pass Details

Date: 20 November 2019
Orbit: 457 x 691 km, 64.7° (Epoch: 30 November)

Event Time Altitude Azimuth Distance (km) Brightness Sun altitude
Exits shadow 19:26:49 32° 352° (N) 1,160 2.8 -23.3°
Drops below altitude 10° 19:29:46 10° 17° (NNE) 2,107 4.4 -22.7°
Sets 19:32:09 0° 24° (NNE) 2,999 5.3 -22.2°
